George, South Africa

10:02 AM SAST on September 28, 2016 (GMT +0200)
George

Weather History for FAGG - January, 2014

Change the Weather History Date:

Thursday, January 23, 2014

  Actual Average Record
Temperature  
Mean Temperature 74 °F -  
Max Temperature 81 °F 75 °F 79 °F (2015)
Min Temperature 66 °F 60 °F 66 °F (2015)
Cooling Degree Days 8    
Growing Degree Days 24 (Base 50)    
Moisture  
Dew Point 65 °F    
Average Humidity 79    
Maximum Humidity 94    
Minimum Humidity 59    
Precipitation  
Precipitation 0.00 in - - ()
Sea Level Pressure  
Sea Level Pressure 29.77 in    
Wind  
Wind Speed 7 mph ()    
Max Wind Speed 16 mph    
Max Gust Speed -    
Visibility 7.3 miles    
Events      
Averages and records for this station are not official NWS values.
T = Trace of Precipitation, MM = Missing Value Source: Averaged Metar Reports

Daily Weather History Graph

Daily Weather History Graph

Search for Another Location

Airport or City:

Trip Planner

Search our weather history database for the weather conditions in past years. The results will help you decide how hot, cold, wet, or windy it might be!

Date:

Astronomy

Jan. 23, 2014 Rise Set
Actual Time 5:42 AM SAST 7:41 PM SAST
Civil Twilight 5:14 AM SAST 8:09 PM SAST
Nautical Twilight 4:40 AM SAST 8:43 PM SAST
Astronomical Twilight 4:04 AM SAST 9:19 PM SAST
Moon 11:37 PM SAST (1/23) 12:13 PM SAST (1/23)
Length of Visible Light 14h 54m
Length of Day
13h 58m
Waning Gibbous, 58% of the Moon is Illuminated
Jan 23
Waning Gibbous
Jan 24
Last Quarter
Jan 30
New
Feb 6
First Quarter
Feb 15
Full

Hourly Weather History & Observations

Time (SAST) Temp. Heat Index Dew Point Humidity Pressure Visibility Wind Dir Wind Speed Gust Speed Precip Events Conditions
12:00 AM 69.8 °F - 68.0 °F 94% 29.77 in 4.3 mi NNW 5.8 mph - N/A   Mostly Cloudy
1:00 AM 69.8 °F - 68.0 °F 94% 29.77 in 5.0 mi Calm Calm - N/A   Unknown
2:00 AM 68 °F - 65 °F 85% 29.76 in 6 mi West 11.5 mph - -  
2:00 AM 68.0 °F - 64.4 °F 88% 29.77 in 6.2 mi West 9.2 mph - N/A   Partly Cloudy
3:00 AM 68.0 °F - 64.4 °F 88% 29.77 in 6.2 mi West 9.2 mph - N/A   Mostly Cloudy
4:00 AM 68.0 °F - 64.4 °F 88% 29.74 in 6.2 mi WNW 8.1 mph - N/A   Mostly Cloudy
5:00 AM 67 °F - 64 °F 85% 29.77 in 12 mi NW 4.6 mph - -   Scattered Clouds
5:00 AM 66.2 °F - 62.6 °F 88% 29.77 in 6.2 mi NW 4.6 mph - N/A   Partly Cloudy
6:00 AM 66.2 °F - 62.6 °F 88% 29.77 in 6.2 mi NW 6.9 mph - N/A   Partly Cloudy
7:00 AM 69.8 °F - 62.6 °F 78% 29.77 in 6.2 mi WNW 6.9 mph - N/A   Partly Cloudy
8:00 AM 72 °F - 65 °F 74% 29.76 in 12 mi West 10.4 mph - -   Scattered Clouds
8:00 AM 71.6 °F - 66.2 °F 83% 29.74 in 6.2 mi West 10.4 mph - N/A   Partly Cloudy
9:00 AM 73.4 °F - 66.2 °F 78% 29.77 in 6.2 mi West 8.1 mph - N/A   Mostly Cloudy
10:00 AM 77.0 °F - 66.2 °F 69% 29.74 in 6.2 mi NW 6.9 mph - N/A   Partly Cloudy
11:00 AM 79 °F - 67 °F 59% 29.74 in 12 mi SSW 6.9 mph - -   Scattered Clouds
11:00 AM 78.8 °F - 68.0 °F 69% 29.74 in 6.2 mi SSW 6.9 mph - N/A   Partly Cloudy
12:00 PM 80.6 °F 82.7 °F 66.2 °F 61% 29.74 in 6.2 mi SSW 9.2 mph - N/A   Partly Cloudy
1:00 PM 77.0 °F - 68.0 °F 74% 29.77 in 6.2 mi SSW 6.9 mph - N/A   Partly Cloudy
2:00 PM 76 °F - 67 °F 66% 29.77 in 12 mi SSW 16.1 mph - -   Partly Cloudy
2:00 PM 77.0 °F - 66.2 °F 69% 29.77 in 6.2 mi SSW 16.1 mph - N/A   Scattered Clouds
3:00 PM 73.4 °F - 66.2 °F 78% 29.80 in 6.2 mi SSW 15.0 mph - N/A   Mostly Cloudy
4:00 PM 71.6 °F - 64.4 °F 78% 29.80 in 6.2 mi SSW 12.7 mph - N/A   Mostly Cloudy
5:00 PM 72 °F - 65 °F 72% 29.80 in 12 mi South 10.4 mph - -   Mostly Cloudy
5:00 PM 71.6 °F - 66.2 °F 83% 29.80 in 6.2 mi South 10.4 mph - N/A   Mostly Cloudy
6:00 PM 73.4 °F - 64.4 °F 73% 29.80 in 6.2 mi SSW 6.9 mph - N/A   Scattered Clouds
7:00 PM 71.6 °F - 64.4 °F 78% 29.80 in 6.2 mi SSE 3.5 mph - N/A   Partly Cloudy
8:00 PM 69 °F - 63 °F 76% 29.82 in 12 mi South 3.5 mph - -   Scattered Clouds
8:00 PM 68.0 °F - 62.6 °F 83% 29.83 in 6.2 mi SSE 2.3 mph - N/A   Partly Cloudy